Location: Benque
(43.2594°N, 0.9178°E)
Time: 14:47:13
(UTC+00:00)

Envisat - Pass Details

Date: 24 January 2020
Orbit: 764 x 766 km, 98.1° (Epoch: 25 February)

Event Time Altitude Azimuth Distance (km) Brightness Sun altitude
Rises 18:03:56 0° 177° (S) 3,218 6.4 -12.2°
Reaches altitude 10° 18:06:17 10° 181° (S) 2,297 5.7 -12.7°
Maximum altitude 18:11:15 56° 260° (W) 905 3.8 -13.5°
Drops below altitude 10° 18:16:16 10° 339° (NNW) 2,313 5.6 -14.4°
Sets 18:18:38 0° 343° (NNW) 3,243 6.3 -14.8°
